CZ-3B DEB, 40838

Orbit data source: Space-Track

CZ-3B DEB, 40838 is space debris in HEO originally from a launch on Mon, 19 Dec 2011 UTC launched from the Xichang Space Center, China (XSC). Debris objects in space refer to the collection of defunct objects orbiting the Earth. Examples of debris include non-operational satellites, rocket bodies, and fragments generated from explosions, collisions, or faulty payload assembly.

Loading next visibility...
Identifier
40838, 2011-077T
Orbit
HEO
Country
Flag of CNCN / PRC
Related business
Manufacturer
CALT
Mission
Spacecraft
Bus & Motor
Unknown
Mass
Unknown
Launch date (UTC)
2011-12-19 (14 years ago)
Launch vehicle
Unknown
Launch site
Xichang Space Center, China (XSC)
Object type
Payload
Rocket body
Debris
Shape & HBR
Unknown shape, 0.2 m
Radar Cross Section
Medium (>0.1 m² and <1 m²)

Expand to show TLE details & history
Last TLE update: 6 days ago

TLE from 6 days ago
0 CZ-3B DEB
1 40838U 11077T   26028.37756248  .00000565  00000-0  36934-2 0  9992
2 40838  26.3689 267.4928 7457966 177.9973 189.2110  1.95707167 77508
Epoch: 2026-01-28T09:03Z
TLE epoch observation values (Epoch: 2026-01-28T09:03:41.398Z)
Latitude
Longitude
3.94904°
Altitude
40,682.682 km
Speed
1.475 km/s
True Right ascension
17h 50m 04s
True Declination
0° 00' 00"
Sunlit
Object was in daylight at epoch
Visualization orbit readout
Latitude
Unknown
Longitude
Unknown
Altitude
Unknown
Speed
Unknown
Apparent Right ascension
Unknown
Apparent Declination
Unknown
Sunlit
N/A
Visualization observer readout
Local Sidereal Time
17:03:45
Azimuth
Unknown
Elevation
Unknown
Doppler factor
Unknown
Orbital elements
Apogee altitude
40,761.594 km
Perigee altitude
485.824 km
Semi-major axis
27,001.846 km
Eccentricity
0.7458
Inclination
26.3689°
RAAN
267.4928°
Arg. of periapsis
177.9973°
True anomaly
182.01573°
Mean anomaly
189.211°
Eccentric anomaly
185.27929°
Mean motion
0.48916 °/min
Orbital period
735.95 mins
BSTAR
0.0036934
Loading maneuver chart data...
Computing Atmospheric mass density...
Loading historical data...
Loading historical data...
Loading historical data...
Loading historical data...
Loading historical data...
Loading historical data...
Loading historical data...

Documentation

Showing up to 5 results
|